Location: Geremba
(10.4250°N, 67.2394°W)
Time: 11:38:55
(UTC+00:00)

Cosmos 2227 Rocket - Pass Details

Date: 23 May 2024
Orbit: 838 x 845 km, 71.0° (Epoch: 24 June)

Event Time Altitude Azimuth Distance (km) Brightness Sun altitude
Exits shadow 09:04:49 20° 229° (SW) 1,843 3.4 -14.7°
Maximum altitude 09:08:13 40° 287° (WNW) 1,214 2.7 -14.0°
Drops below altitude 10° 09:13:29 10° 356° (N) 2,455 4.9 -12.8°
Sets 09:16:04 0° 4° (N) 3,390 5.7 -12.2°
